Home > Weather > Orkanger/Fannrem > Past weeks

Flag for Norway Past Weather in Orkanger/Fannrem, Norway — Yesterday and Last 2 Weeks

Now
65 °F

Mild.


Feels Like: 65 °F
Forecast: 53 / 68 °F
Wind: 6 mph from Southeast

Location: Marstein

Current Time: May 28, 2016 at 6:07:03 PM

Latest Report: May 28, 2016 at 5:00 PM


Visibility: N/A

Pressure: 30.05 "Hg

Humidity: 32%

Dew Point: 35 °F

Location of Orkanger/FannremLocation

Past Weather in Orkanger/Fannrem — Graph

°F

Orkanger/Fannrem Temperature Yesterday

Maximum temperature yesterday: 73 °F (at 2:00 PM)
Minimum temperature yesterday: 42 °F (at 12:00 AM)
Average temperature yesterday: 57 °F

High & Low Weather Summary for the Past Weeks

 TemperatureHumidityPressure
High73 °F (May 27, 2:00 PM)92% (May 15, 5:00 AM)30.35 "Hg (May 15, 5:00 AM)
Low34 °F (May 16, 5:00 AM)21% (May 27, 2:00 PM)29.57 "Hg (May 20, 4:00 PM)
Average48 °F66%29.94 "Hg
* Reported May 13 5:00 PM — May 28 5:00 PM, Orkanger/Fannrem, Weather by CustomWeather, © 2016

Note: Actual official high and low records may vary slightly from our data, if they occured in-between our weather recording intervals... More about our weather records

Advertising

Orkanger/Fannrem Weather History for the Previous 24 Hours

Scroll right to see more
 ConditionsComfort  
Time TempWeatherWind HumidityBarometerVisibility
5:00 PM
Sat, May 28
65 °FMild.6 mph32%30.05 "HgN/A
4:00 PM68 °FMild.7 mph29%30.06 "HgN/A
3:00 PM66 °FMild.6 mph31%30.06 "HgN/A
2:00 PM68 °FMild.6 mph29%30.07 "HgN/A
1:00 PM68 °FMild.5 mph31%30.07 "HgN/A
12:00 PM69 °FMild.5 mph31%30.09 "HgN/A
11:00 AM66 °FMild.6 mph38%30.11 "HgN/A
10:00 AM65 °FMild.2 mph42%30.12 "HgN/A
8:00 AM51 °FCool.2 mph62%30.16 "HgN/A
7:00 AM51 °FCool.2 mph59%30.18 "HgN/A
6:00 AM50 °FCool.2 mph60%30.19 "HgN/A
5:00 AM51 °FCool.3 mph56%30.20 "HgN/A
4:00 AM49 °FCool.1 mph65%30.21 "HgN/A
3:00 AM51 °FCool.2 mph59%30.20 "HgN/A
2:00 AM50 °FCool.2 mph67%30.20 "HgN/A
1:00 AM46 °FCool.1 mph88%30.21 "HgN/A
12:00 AM45 °FQuite cool.1 mph86%30.20 "HgN/A
11:00 PM
Fri, May 27
47 °FCool.1 mph84%30.19 "HgN/A
10:00 PM50 °FCool.1 mph78%30.18 "HgN/A
9:00 PM54 °FCool.1 mph69%30.17 "HgN/A
8:00 PM58 °FRefreshingly cool.1 mph57%30.16 "HgN/A
7:00 PM63 °FMild.1 mph33%30.15 "HgN/A
6:00 PM70 °FMild.1 mph22%30.14 "HgN/A
Weather by CustomWeather, © 2016

See weather overviewHow to use our weather pages